Location: Cary
(35.7910°N, 78.7810°W)
Time: 11:21:36
(UTC-05:00)

N. Korean satellite - Pass Details

Date: 05 December 2021
Orbit: 447 x 491 km, 97.3° (Epoch: 25 January)

Event Time Altitude Azimuth Distance (km) Brightness Sun altitude
Rises 05:41:37 0° 5° (N) 2,455 10.0 -17.6°
Reaches altitude 10° 05:43:41 10° 0° (N) 1,577 9.0 -17.2°
Maximum altitude 05:46:57 51° 284° (WNW) 571 6.5 -16.5°
Drops below altitude 10° 05:50:13 10° 208° (SSW) 1,568 9.0 -15.9°
Sets 05:52:16 0° 203° (SSW) 2,438 10.1 -15.5°
